Weather History for YSRI - November, 2013

Change the Weather History Date:

Wednesday, November 20, 2013

  Actual Average (YSSY) Record (YSSY)
Temperature  
Mean Temperature 70 °F -  
Max Temperature 84 °F 83 °F 87 °F (2006)
Min Temperature 57 °F 60 °F 53 °F (1998)
Cooling Degree Days 6    
Growing Degree Days 20 (Base 50)    
Moisture  
Dew Point 60 °F    
Average Humidity 76    
Maximum Humidity 100    
Minimum Humidity 37    
Precipitation  
Precipitation 0.00 in 0.10 in - ()
Sea Level Pressure  
Sea Level Pressure 29.84 in    
Wind  
Wind Speed 3 mph ()    
Max Wind Speed 14 mph    
Max Gust Speed -    
Averages and records for this station are not official NWS values.
T = Trace of Precipitation, MM = Missing Value Source: Averaged Metar Reports

Daily Weather History Graph

Daily Weather History Graph

Search for Another Location

Airport or City:

Trip Planner

Search our weather history database for the weather conditions in past years. The results will help you decide how hot, cold, wet, or windy it might be!

Date:

Astronomy

Nov. 20, 2013 Rise Set
Actual Time 5:43 AM AEDT 7:42 PM AEDT
Civil Twilight 5:15 AM AEDT 8:09 PM AEDT
Nautical Twilight 4:41 AM AEDT 8:43 PM AEDT
Astronomical Twilight 4:06 AM AEDT 9:19 PM AEDT
Moon 9:51 PM AEDT (11/20) 7:34 AM AEDT (11/20)
Length of Visible Light 14h 54m
Length of Day
13h 58m
Waning Gibbous, 95% of the Moon is Illuminated
Nov 20
Waning Gibbous
Nov 26
Last Quarter
Dec 3
New
Dec 10
First Quarter
Dec 17
Full

Hourly Weather History & Observations

Time (AEDT) Temp. Heat Index Dew Point Humidity Pressure Visibility Wind Dir Wind Speed Gust Speed Precip Events Conditions
12:00 AM 60.8 °F - 60.8 °F 100% 29.86 in - Calm Calm - N/A   Unknown
12:30 AM 60.8 °F - 60.8 °F 100% 29.86 in - Calm Calm - N/A   Unknown
1:00 AM 60.8 °F - 60.8 °F 100% 29.86 in - Calm Calm - N/A   Unknown
1:30 AM 60.8 °F - 60.8 °F 100% 29.86 in - Calm Calm - N/A   Unknown
2:00 AM 59.0 °F - 59.0 °F 100% 29.83 in - Calm Calm - N/A   Unknown
2:30 AM 59.0 °F - 59.0 °F 100% 29.83 in - Calm Calm - N/A   Unknown
3:00 AM 59.0 °F - 59.0 °F 100% 29.83 in - Calm Calm - N/A   Unknown
3:30 AM 59.0 °F - 59.0 °F 100% 29.83 in - Calm Calm - N/A   Unknown
4:00 AM 57.2 °F - 57.2 °F 100% 29.83 in - Calm Calm - N/A   Unknown
4:30 AM 57.2 °F - 57.2 °F 100% 29.83 in - Calm Calm - N/A   Unknown
5:00 AM 57.2 °F - 57.2 °F 100% 29.83 in - Calm Calm - N/A   Unknown
5:30 AM 57.2 °F - 57.2 °F 100% 29.83 in - Calm Calm - N/A   Unknown
6:00 AM 57.2 °F - 57.2 °F 100% 29.86 in - Calm Calm - N/A   Unknown
6:30 AM 57.2 °F - 57.2 °F 100% 29.86 in - Calm Calm - N/A   Unknown
7:00 AM 59.0 °F - 59.0 °F 100% 29.86 in - Calm Calm - N/A   Unknown
7:30 AM 60.8 °F - 60.8 °F 100% 29.89 in - Calm Calm - N/A   Unknown
8:00 AM 62.6 °F - 62.6 °F 100% 29.89 in - Calm Calm - N/A   Unknown
8:30 AM 62.6 °F - 62.6 °F 100% 29.89 in - NE 4.6 mph - N/A   Unknown
9:00 AM 66.2 °F - 64.4 °F 94% 29.89 in - East 2.3 mph - N/A   Unknown
9:30 AM 68.0 °F - 64.4 °F 88% 29.89 in - ESE 1.2 mph - N/A   Unknown
10:00 AM 69.8 °F - 64.4 °F 83% 29.89 in - East 1.2 mph - N/A   Unknown
10:30 AM 73.4 °F - 64.4 °F 73% 29.89 in - NE 4.6 mph - N/A   Unknown
11:00 AM 75.2 °F - 59.0 °F 57% 29.89 in - ENE 5.8 mph - N/A   Unknown
11:30 AM 77.0 °F - 60.8 °F 57% 29.86 in - ENE 4.6 mph - N/A   Unknown
12:00 PM 77.0 °F - 53.6 °F 44% 29.86 in - NE 4.6 mph - N/A   Unknown
12:30 PM 78.8 °F - 59.0 °F 51% 29.86 in - ENE 4.6 mph - N/A   Unknown
1:00 PM 80.6 °F 80.5 °F 55.4 °F 42% 29.86 in - NE 4.6 mph - N/A   Unknown
1:30 PM 82.4 °F 81.4 °F 53.6 °F 37% 29.83 in - NNE 4.6 mph - N/A   Unknown
2:00 PM 82.4 °F 81.4 °F 53.6 °F 37% 29.83 in - North 4.6 mph - N/A   Unknown
2:30 PM 82.4 °F 81.7 °F 55.4 °F 39% 29.80 in - ENE 5.8 mph - N/A   Unknown
3:00 PM 84.2 °F 83.0 °F 55.4 °F 37% 29.80 in - ESE 5.8 mph - N/A   Unknown
3:30 PM 84.2 °F 83.0 °F 55.4 °F 37% 29.80 in - NE 5.8 mph - N/A   Unknown
4:00 PM 84.2 °F 83.0 °F 55.4 °F 37% 29.77 in - ENE 6.9 mph - N/A   Unknown
4:30 PM 84.2 °F 84.4 °F 60.8 °F 45% 29.77 in - ESE 11.5 mph - N/A   Unknown
5:00 PM 84.2 °F 84.4 °F 60.8 °F 45% 29.77 in - ESE 13.8 mph - N/A   Unknown
5:30 PM 82.4 °F 82.9 °F 60.8 °F 48% 29.77 in - East 13.8 mph - N/A   Unknown
6:00 PM 80.6 °F 81.8 °F 62.6 °F 54% 29.80 in - East 12.7 mph - N/A   Unknown
6:30 PM 78.8 °F - 60.8 °F 54% 29.80 in - East 12.7 mph - N/A   Unknown
7:00 PM 75.2 °F - 59.0 °F 57% 29.80 in - East 10.4 mph - N/A   Unknown
7:30 PM 73.4 °F - 60.8 °F 65% 29.83 in - East 9.2 mph - N/A   Unknown
8:00 PM 71.6 °F - 62.6 °F 73% 29.83 in - East 6.9 mph - N/A   Unknown
8:30 PM 71.6 °F - 62.6 °F 73% 29.83 in - East 5.8 mph - N/A   Unknown
9:00 PM 69.8 °F - 62.6 °F 78% 29.86 in - East 5.8 mph - N/A   Unknown
9:30 PM 69.8 °F - 62.6 °F 78% 29.86 in - East 5.8 mph - N/A   Unknown
10:00 PM 68.0 °F - 62.6 °F 83% 29.89 in - East 5.8 mph - N/A   Unknown
10:30 PM 68.0 °F - 62.6 °F 83% 29.89 in - East 6.9 mph - N/A   Unknown
11:00 PM 66.2 °F - 62.6 °F 88% 29.89 in - ENE 5.8 mph - N/A   Unknown
11:30 PM 66.2 °F - 62.6 °F 88% 29.89 in - East 8.1 mph - N/A   Unknown